Location: Azat
(46.0765°N, 1.7600°E)
Time: 01:39:11
(UTC+00:00)

SeaSat 1 - Pass Details

Date: 09 April 2020
Orbit: 745 x 746 km, 108.0° (Epoch: 05 June)

Event Time Altitude Azimuth Distance (km) Brightness Sun altitude
Rises 19:50:52 0° 21° (NNE) 3,199 5.8 -13.6°
Reaches altitude 10° 19:53:16 10° 14° (NNE) 2,272 5.1 -13.9°
Maximum altitude 19:57:47 37° 308° (NW) 1,155 4.1 -14.6°
Drops below altitude 10° 20:02:16 10° 242° (WSW) 2,260 5.4 -15.3°
Sets 20:04:39 0° 234° (SW) 3,181 6.0 -15.7°
